Location: Rioux
(40.7500°S, 175.7500°E)
Time: 11:08:32
(UTC+00:00)

BREEZE-M DEB (TANK) - Pass Details

Date: 12 June 2024
Orbit: 282 x 12423 km, 49.5° (Epoch: 20 July)

Event Time Altitude Azimuth Distance (km) Brightness Sun altitude
Exits shadow 17:53:23 28° 210° (SSW) 1,296 3.8 -19.2°
Maximum altitude 17:54:50 35° 172° (S) 1,359 4.2 -18.9°
Drops below altitude 10° 18:04:00 10° 108° (ESE) 4,818 7.9 -17.3°
Sets 18:11:36 0° 101° (E) 7,708 9.3 -15.9°
